Bridgeport, CT

5:13 PM EST on February 21, 2018 (GMT -0500)
Sikorsky Memorial

Weather History for KBDR - June, 2013

Change the Weather History Date:

Monday, June 17, 2013

  Actual Average Record
Temperature  
Mean Temperature 75 °F 69 °F  
Max Temperature 84 °F 78 °F 95 °F (1957)
Min Temperature 65 °F 61 °F 50 °F (1958)
Degree Days  
Heating Degree Days 0 1  
Month to date heating degree days 18 28  
Since 1 June heating degree days 18 28  
Since 1 July heating degree days 5094 5388  
Cooling Degree Days 10 5  
Month to date cooling degree days 56 59  
Year to date cooling degree days 94 83  
Since 1 June cooling degree days 56 59  
Growing Degree Days 25 (Base 50)    
Moisture  
Dew Point 64 °F    
Average Humidity 71    
Maximum Humidity 93    
Minimum Humidity 48    
Precipitation  
Precipitation 0.28 in 0.12 in 2.59 in (2001)
Month to date precipitation 8.62 2.32  
Year to date precipitation 22.22 20.19  
Snow  
Snow 0.00 in 0.00 in 0.00 in (2002)
Month to date snowfall 0.0 0.0  
Since 1 July snowfall 64.3 27.6  
Snow Depth 0.00 in    
Sea Level Pressure  
Sea Level Pressure 29.87 in    
Wind  
Wind Speed 6 mph (SW)    
Max Wind Speed 21 mph    
Max Gust Speed 29 mph    
Visibility 9 miles    
Events Rain , Thunderstorm    
T = Trace of Precipitation, MM = Missing Value Source: NWS Daily Summary

Daily Weather History Graph

Daily Weather History Graph

Search for Another Location

Airport or City:

Trip Planner

Search our weather history database for the weather conditions in past years. The results will help you decide how hot, cold, wet, or windy it might be!

Date:

Astronomy

Jun. 17, 2013 Rise Set
Actual Time 5:19 AM EDT 8:27 PM EDT
Civil Twilight 4:45 AM EDT 9:01 PM EDT
Nautical Twilight 4:02 AM EDT 9:44 PM EDT
Astronomical Twilight 3:11 AM EDT 10:36 PM EDT
Moon 2:00 PM EDT (6/17) 12:56 AM EDT (6/17)
Length of Visible Light 16h 15m
Length of Day
15h 08m
First Quarter, 60% of the Moon is Illuminated
Jun 17
First Quarter
Jun 23
Full
Jun 30
Last Quarter
Jul 8
New
Jul 15
First Quarter

Hourly Weather History & Observations

Time (EDT) Temp. Heat Index Dew Point Humidity Pressure Visibility Wind Dir Wind Speed Gust Speed Precip Events Conditions
12:52 AM 70.0 °F - 63.0 °F 78% 29.84 in 10.0 mi WNW 5.8 mph - N/A   Clear
1:52 AM 70.0 °F - 63.0 °F 78% 29.84 in 10.0 mi NW 6.9 mph - N/A   Clear
2:52 AM 68.0 °F - 63.0 °F 84% 29.86 in 10.0 mi SW 6.9 mph - N/A   Clear
3:52 AM 68.0 °F - 64.0 °F 87% 29.86 in 10.0 mi Calm Calm - N/A   Clear
4:52 AM 66.0 °F - 62.1 °F 87% 29.86 in 10.0 mi SW 4.6 mph - N/A   Clear
5:52 AM 66.0 °F - 64.0 °F 93% 29.88 in 10.0 mi Calm Calm - N/A   Clear
6:52 AM 69.1 °F - 64.9 °F 87% 29.89 in 10.0 mi WSW 3.5 mph - N/A   Clear
7:52 AM 70.0 °F - 64.9 °F 84% 29.90 in 10.0 mi WSW 4.6 mph - N/A   Scattered Clouds
8:52 AM 72.0 °F - 64.9 °F 78% 29.90 in 10.0 mi SW 9.2 mph - N/A   Clear
9:52 AM 73.9 °F - 64.9 °F 73% 29.89 in 10.0 mi SW 8.1 mph - N/A   Clear
10:52 AM 75.0 °F - 66.0 °F 73% 29.88 in 10.0 mi SSW 11.5 mph - N/A   Clear
11:52 AM 78.1 °F - 64.9 °F 64% 29.87 in 10.0 mi SW 11.5 mph - N/A   Clear
12:52 PM 81.0 °F 82.7 °F 64.9 °F 58% 29.87 in 10.0 mi SW 12.7 mph - N/A   Clear
1:52 PM 84.0 °F 84.5 °F 62.1 °F 47% 29.86 in 10.0 mi SW 10.4 mph - N/A   Clear
2:22 PM 80.6 °F 81.8 °F 62.6 °F 54% 29.86 in 10.0 mi WSW 4.6 mph - 0.00 in Rain , Thunderstorm Light Thunderstorms and Rain
2:52 PM 72.0 °F - 64.9 °F 78% 29.86 in 1.8 mi Calm Calm - 0.26 in Rain , Thunderstorm Light Thunderstorms and Rain
3:01 PM 73.4 °F - 66.2 °F 78% 29.85 in 6.0 mi Calm Calm - 0.00 in Thunderstorm Unknown
3:32 PM 75.2 °F - 64.4 °F 69% 29.84 in 6.0 mi WSW 4.6 mph - 0.00 in   Haze
3:52 PM 78.1 °F - 66.0 °F 66% 29.84 in 6.0 mi Calm Calm - 0.01 in   Haze
5:52 PM 75.9 °F - 64.9 °F 69% 29.84 in 10.0 mi SSE 9.2 mph - N/A   Clear
6:52 PM 79.0 °F - 66.9 °F 66% 29.85 in 10.0 mi Variable 3.5 mph - N/A   Clear
7:15 PM 73.4 °F - 59.0 °F 61% 29.87 in 10.0 mi North 9.2 mph - N/A   Mostly Cloudy
7:52 PM 72.0 °F - 61.0 °F 68% 29.88 in 10.0 mi East 4.6 mph - N/A   Scattered Clouds
8:52 PM 69.1 °F - 62.1 °F 78% 29.88 in 10.0 mi East 4.6 mph - N/A   Clear
9:52 PM 68.0 °F - 63.0 °F 84% 29.93 in 10.0 mi South 4.6 mph - 0.00 in Rain , Thunderstorm Light Rain
10:25 PM 68.0 °F - 64.4 °F 88% 29.92 in 10.0 mi ENE 3.5 mph - 0.01 in   Scattered Clouds
10:52 PM 66.9 °F - 64.0 °F 90% 29.92 in 10.0 mi East 4.6 mph - 0.01 in   Clear
11:52 PM 66.0 °F - 63.0 °F 90% 29.91 in 10.0 mi NNE 3.5 mph - N/A   Clear